Regional Weather Roundup
Issued by NWS New Orleans/Baton Rouge, LA

Home | Current Version | Previous Version | Text Only | Print | Product List | Glossary On
Versions: 1 2 3 4 5 6 7 8 9 10 11 12 13 14 15 16 17 18 19 20 21 22 23 24 25 26 27
000
ASUS44 KLIX 200513
RWRLIX
NEW ORLEANS REGIONAL WEATHER ROUNDUP
NATIONAL WEATHER SERVICE NEW ORLEANS LA
1100 PM CST FRI JAN 19 2018

NOTE: "FAIR" INDICATES FEW OR NO CLOUDS BELOW 12,000 FEET WITH NO
      SIGNIFICANT WEATHER AND/OR OBSTRUCTIONS TO VISIBILITY.
      SKY/WX - SKY CONDITION AND SIGNIFICANT WEATHER.
      TMP - AIR TEMPERATURE.     DP    - DEWPOINT TEMPERATURE.
      RH  - RELATIVE HUMIDITY.   PRES  - PRESSURE.
      HI  - HEAT INDEX.          WCI   - WIND CHILL INDEX.

*  THESE STATIONS ARE NOT NWS OR FAA STATIONS AND ARE NOT UNDER
   NWS QUALITY CONTROL.

LAZ038-040-048-061>063-065>067-069-200600-
SOUTHEAST LOUISIANA

CITY           SKY/WX    TMP DP  RH WIND       PRES   REMARKS
N.O. INTL ARPT MOCLDY    47  31  53 E5        30.27F
N.O. LAKEFRONT FAIR      46  33  60 SE7       30.28F
N.O. DOWNTOWN* FAIR      52  26  36 SE8       30.28S
RESERVE*       FAIR      44  33  66 E3        30.26F
SLIDELL        FAIR      38  33  82 CALM      30.28S
BATON ROUGE    FAIR      39  31  72 E6        30.25F WCI  35
BOOTHVILLE     FAIR      49  42  77 E6        30.27F
BELLE CHASSE   FAIR      43  36  76 E6        30.27S
BOGALUSA*      MOCLDY    38  32  79 CALM      30.30R
GALLIANO*      FAIR      46  37  72 NE5       30.26F
NEW ROADS*     FAIR      41  29  63 E7        30.24F
GONZALES*      FAIR      45  33  61 CALM      30.25F
HAMMOND*       FAIR      36  34  93 CALM      30.27F
HOUMA*         FAIR      44  35  70 E5        30.25F
PORT FOURCHON* CLEAR     55  50  82 E7        30.26S

$$

MSZ070-080>082-200600-
SOUTHERN MISSISSIPPI

CITY           SKY/WX    TMP DP  RH WIND       PRES   REMARKS
MCCOMB         CLOUDY    45  29  53 S3        30.26S
GULFPORT       FAIR      37  32  82 NW3       30.29S
BILOXI         FAIR      40  35  82 CALM      30.28S
PASCAGOULA     FAIR      33  31  92 CALM      30.30S

$$

COASTAL OBSERVATIONS
LAKE AND NEARSHORE STATIONS

STATION/POSITION TIME  SKY/WX   TEMP    WIND        PRES    WAVE
                                AIR SEA DIR/SP/G            HT/PER
                 (UTC)          (F)     (DEG/KT/KT) (MB)    (FT/S)
PASCAGOULA       0448            40     100/  2/  2 1025.4
WAVELAND YACHT   0448            40 43   10/  1/  1 1025.4
GRAND ISLE       0448            55 53  110/  9/ 12 1024.3
SOUTHWEST PASS   0448            54 47   50/ 12/ 13 1024.9
NEW CANAL        0448            45 45  150/  2/  4 1024.9
SHELL BEACH      0448            46 46  110/  7/  8 1025.2

OFFSHORE STATIONS

STATION/POSITION TIME  SKY/WX   TEMP    WIND        PRES    WAVE
                                AIR SEA DIR/SP/G            HT/PER
                 (UTC)          (F)     (DEG/KT/KT) (MB)    (FT/S)
64 S DAUPHIN ISL 0450            60 69  110/ 10/ 12 1025.4    1/ 3

$$





USA.gov is the U.S. government's official web portal to all federal, state and local government web resources and services.